{"data":{"norad_id":59179,"epoch":"2026-05-25T00:29:51.142848Z","epoch_age_seconds":73213,"freshness":"FRESH","line1":"1 59179U 24045B   26145.02073082  .00017381  00000+0  63943-3 0  9993","line2":"2 59179  43.0027  21.6094 0001164 260.9922  99.0798 15.27591595124832","mean_motion":15.27591595,"eccentricity":0.0001164,"inclination_deg":43.0027,"raan_deg":21.6094,"arg_perigee_deg":260.9922,"mean_anomaly_deg":99.0798,"bstar":0.00063943,"rev_number":12483,"period_min":94.26603319325,"perigee_km":482.21573863774,"apogee_km":483.81301467823,"semimajor_km":6861.151376658,"source":"CELESTRAK","updated_at":"2026-05-25T13:38:18.837765Z"}}